www.pogodaiklimat.ru

Погода и климат >> Архив погоды >> Россия >> Камчатский край >> Долиновка


ПОГОДА в Долиновке

  • Прогноз погоды в Долиновке
  • Монитор погоды в Долиновке

АРХИВ ПОГОДЫ в Долиновке

Время (UTC), дата Ветер
(напр.,м/с)
 
Видим.   Явления Облачность Т
(С)
Тd
(С)
f
(%)
Тe
(С)
Тes
(С)
Комфортность P
(гПа)
Po
(гПа)
Тmin
(С)
Tmax
(С)
R
(мм)
R24
(мм)
S
(см)
06 12.02 штиль 0 50 км 5/5 1000 м
[Sc]
-14.1 -19.4 64 -14 -14 1009.5 996.0
09 12.02 штиль 0
{2}
20 км 10/10 1000 м
[Sc]
-15.8 -19.0 76 -16 -16 1012.3 998.7 -9.7
12 12.02 штиль 0 20 км 10/10 1000 м
[Sc]
-16.6 -13.6 128 -17 -17 1015.0 1001.3
15 12.02 штиль 0 20 км ясно -27.0 -29.8 77 -27 -27 1017.0 1002.7
18 12.02 штиль 0 20 км ясно -31.0 -34.4 72 -31 -31 опасность
обморожения
1018.5 1004.0
21 12.02 штиль 0
{1}
50 км 4/0
[Ci sp]
-33.8 -37.3 71 -34 -34 опасность
обморожения
1019.6 1004.9 -34.1 61
00 13.02 Ю 1 50 км 3/3 1000 м
[Sc]
-21.6 -26.1 67 -25 -23 1020.0 1006.0 -34.1
03 13.02 штиль 0 50 км 9/0
[Ci sp]
-12.9 -21.6 48 -13 -13 1018.8 1005.3
06 13.02 СВ 1 50 км 10/6 1000 м
[Sc Ac As]
-13.3 -19.8 58 -16 -16 1017.5 1004.0
09 13.02 СВ 2
{5}
20 км 10/10 600 м
[Cb cap]
-13.4 -21.4 51 -18 -18 1016.2 1002.7 -11.8
12 13.02 СВ 1 20 км 10/10 600 м
[Cb cap]
-13.5 -20.0 58 -16 -16 1013.5 1000.0
15 13.02 СВ 2 20 км 10/10 600 м
[Cb cap]
-13.4 -18.2 67 -18 -18 1008.1 994.7
18 13.02 СВ 2 20 км 10/10 600 м
[Cb cap]
-13.1 -17.6 69 -18 -18 1004.1 990.7
21 13.02 СВ 3
{11}
50 км 10/10 600 м
[Cb cap]
-11.9 -16.1 71 -18 -18 998.4 985.3 -13.6 61
00 14.02 СВ 2 50 км 10/10 600 м
[Cb cap]
-11.1 -15.8 68 -16 -16 993.9 980.8
03 14.02 СВ 3-10
{13}
20 км слаб. ливневой снег 10/10 600 м
[Cb cap]
-10.2 -15.2 67 -16 -16 988.8 975.9
06 14.02 ЮЗ 3
{13}
50 км {ливн. осадки} 10/10 600 м
[Cb cap]
-12.0 -14.3 83 -18 -18 973.6
09 14.02 С 1
{13}
10 км слаб. ливневой снег 10/10 600 м
[Cb cap]
-11.9 -14.0 84 -14 -14 985.0 972.0 -10.2 0.8
12 14.02 ЮЗ 3 20 км слаб. ливневой снег 10/10 600 м
[Cb cap]
-13.5 -15.4 86 -20 -20 983.0 970.0
15 14.02 ЮЗ 1 20 км {ливн. осадки} 10/10 600 м
[Cb cap]
-13.5 -15.6 84 -16 -16 983.8 970.7
18 14.02 СЗ 1 20 км {снег} 10/8 600 м
[Cb cap Ac As]
-18.2 -20.0 86 -21 -21 984.0 970.7
21 14.02 штиль 0
{5}
50 км 10/5 1000 м
[Sc Ac As]
-18.5 -20.7 83 -19 -19 983.7 970.4 -18.5 0.5 61
00 15.02 штиль 0 50 км 9/6 1000 м
[Sc Ac trans]
-12.3 -16.0 74 -12 -12 984.4 971.4 -20.2
03 15.02 штиль 0 50 км 9/3 1000 м
[Sc Ac trans Ci sp]
-8.3 -13.3 67 -9 -8 984.9 972.0
06 15.02 штиль 0 50 км 10/8 1000 м
[Sc Ci sp]
-9.0 -13.6 69 -9 -9 984.9 972.0
09 15.02 ЮЗ 1
{4}
20 км 10/10 1000 м
[Sc]
-11.3 -17.3 61 -13 -13 987.7 974.7 -7.9
12 15.02 штиль 0 20 км 10/10 1000 м
[Sc]
-12.8 -15.5 80 -13 -13 989.1 976.0
15 15.02 ЮЗ 4 20 км 10/10 1000 м
[Sc]
-13.0 -20.1 55 -20 -20 989.1 976.0
18 15.02 штиль 0 20 км 3/3 1000 м
[Sc]
-17.6 -22.9 63 -18 -18 989.4 976.0
21 15.02 штиль 0
{7}
50 км 8/8 1000 м
[Sc]
-21.0 -23.3 82 -21 -21 989.1 975.6 -21.5 61
00 16.02 штиль 0 50 км 5/3 1000 м
[Sc Ci fib]
-11.7 -20.3 49 -12 -9 988.8 975.8 -22.2
03 16.02 ЮВ 1 50 км 5/3 1000 м
[Sc Ci fib]
-7.1 -20.6 33 -9 -7 987.5 974.7
06 16.02 В 1 50 км 5/5 1000 м
[Sc]
-9.0 -19.5 42 -11 -11 987.6 974.7
09 16.02 штиль 0
{3}
20 км 4/3 1000 м
[Sc Ci fib]
-21.4 -24.1 79 -21 -21 989.6 976.0 -7.1
12 16.02 штиль 0 20 км 4/0
[Ci fib]
-26.6 -29.4 77 -27 -27 989.9 976.0
15 16.02 штиль 0 20 км ясно -29.6 -32.5 76 -30 -30 991.4 977.3
18 16.02 штиль 0 20 км 4/0
[Ci fib]
-28.6 -31.9 73 -29 -29 991.3 977.3
21 16.02 штиль 0
{1}
50 км 9/3 1000 м
[Sc Ci sp]
-30.9 -34.4 71 -31 -31 опасность
обморожения
992.5 978.4 -31.3 61
00 17.02 штиль 0 50 км 8/3 1000 м
[Sc Ci sp]
-19.1 -24.3 63 -19 -17 992.6 979.1
03 17.02 штиль 0 50 км 9/4 1000 м
[Sc Ci fib]
-7.9 -20.7 35 -8 -8 991.6 978.7
06 17.02 штиль 0 50 км 9/8 600 м
[Cb cap Ci sp]
-9.8 -18.0 51 -10 -10 993.0 980.0
09 17.02 штиль 0
{2}
20 км 9/6 1000 м
[Sc Ac As Ci fib]
-17.0 -19.5 81 -17 -17 994.7 981.3 -7.6
12 17.02 штиль 0 20 км 9/6 1000 м
[Sc Ac As Ci fib]
-19.9 -21.9 84 -20 -20 996.3 982.7
15 17.02 штиль 0 20 км 9/6 1000 м
[Sc Ac As Ci fib]
-23.7 -26.3 79 -24 -24 997.8 984.0
18 17.02 штиль 0 20 км 9/5 1000 м
[Sc Ac As Ci fib]
-25.1 -27.7 79 -25 -25 999.2 985.3
21 17.02 штиль 0
{1}
50 км 9/4 1000 м
[Sc Ac As Ci fib]
-26.7 -29.4 78 -27 -27 999.3 985.4 -26.7 61
00 18.02 З 1 50 км 4/0
[Ci fib]
-16.9 -21.8 66 -20 -16 1000.0 986.6 -27.1
03 18.02 З 1 50 км 6/0
[Ci fib]
-9.1 -19.4 43 -11 -10 999.8 986.7
06 18.02 Ю 1 50 км 7 баллов -8.5 -20.6 37 -10 -10 1001.1 988.0
09 18.02 штиль 0
{3}
20 км 4/0
[Ci fib]
-20.4 -22.8 81 -20 -20 1004.4 990.7 -6.8
12 18.02 штиль 0 20 км 4 балла -26.6 -29.4 77 -27 -27 1006.1 992.0
15 18.02 штиль 0 20 км 4 балла -29.1 -32.2 74 -29 -29 1007.6 993.3
18 18.02 штиль 0 ясно 74 994.7
21 18.02 штиль 0
{1}
50 км 9/0
[Ci sp]
-28.5 -31.7 74 -29 -28 1010.0 995.8 -31.3 61
00 19.02 штиль 0 50 км 9/0
[Ac As Ci sp]
-20.1 -25.1 64 -20 -18 1010.4 996.6
03 19.02 З 1 50 км 9 баллов -12.4 -20.9 49 -15 -14 1010.7 997.3

 

Местоположение метеостанции Долиновка (Камчатский край, Россия): широта 55.12 долгота 159.00 высота над уровнем моря 102 м.

В архиве по умолчанию представлена погода в Долиновке за последнюю неделю. Архивные данные за месяц целиком и за предыдущие месяцы, начиная с января 2011 года, Вы можете получить, выбрав интересующий диапазон дат из раскрывающегося списка и нажав кнопку "Ввод!".


*Определитесь, кто Вы:
робот инопланетянин человек

Внимание! Время в таблицах - всемирное. Для получения местного времени необходимо прибавить поправку, которая равна 12 ч.

Смотрите также архив погоды в соседних городах и на ближайших метеорологических станциях:

Погода в Мильково (Камчатский край, Россия) (58 км)
Погода в Эссо (Камчатский край, Россия) (92 км)
Погода в Козыревске (Камчатский край, Россия) (115 км)
Погода в Пущино (Камчатский край, Россия) (123 км)
Погода в Семячике (Камчатский край, Россия) (125 км)
Погода в Ключах (Камчатский край, Россия) (175 км)
Погода в Соболево (Камчатский край, Россия) (219 км)
Погода в Иче (Камчатский край, Россия) (227 км)
Погода в Петропавловск-Камч. 2 (Камчатский край, Россия) (229 км)
Погода в Сосновке (Камчатский край, Россия) (231 км)

Пояснения к столбцам:

Ветер - указаны скорость ветра в м/с - средняя за 10 мин, порывы в срок и между сроками (в фигурных скобках) и направление, откуда дует ветер: С - северный, СВ - северо-восточный, В - восточный, ЮВ - юго-восточный, Ю - южный, ЮЗ - юго-западный, З - западный, СЗ - северо-западный.
Видимость - горизонтальная дальность видимости в метрах или километрах. При видимости от 1 до 10 км при отсутствии осадков обычно наблюдается дымка, при ухудшении видимости до 1 км и менее - туман. В сухую погоду видимость может ухудшаться дымом, пылью или мглою.
Явления - указаны атмосферные явления, наблюдавшиеся в срок или в последний час перед сроком; фигурными скобками обозначены явления, наблюдавшиеся между сроками (за 1-3 часа до срока); квадратными скобками обозначены град или гололедные отложения с указанием их диаметра в мм.
Облачность - указаны через наклонную черту общая и нижняя облачность в баллах и высота нижней границы облаков в метрах; квадратными скобками обозначены формы облаков: Ci - перистые, Cs - перисто-слоистые, Cc - перисто-кучевые, Ac - высококучевые, As - высокослоистые, Sc - слоисто-кучевые, Ns - слоисто-дождевые, Cu - кучевые, Cb - кучево-дождевые. Подробнее классификацию облаков см. в Атласе облаков (PDF).
T - Температура воздуха - температура, измеренная на высоте 2 м над землей.
Td - Температура точки росы - температура, при понижении до которой содержащийся в воздухе водяной пар достигнет насыщения.
f - Относительная влажность воздуха - влажноcть воздуха, измеренная на высоте 2 м над землей.
Te - Эффективная температура - температура, которую ощущает одетый по сезону человек в тени. Характеристика душности погоды. При расчете учитывается влияние влажности воздуха и скорости ветра на теплоощущения человека.
Tes - Эффективная температура на солнце - температура, которую ощущает человек, с поправкой на солнечный нагрев. Характеристика знойности погоды. Зависит от высоты солнца над горизонтом, облачности и скорости ветра. Ночью, в пасмурную погоду, а также при ветре 12 м/с и более поправка равна нулю.
P - Атмосферное давление - приведенное к уровню моря атмосферное давление.
Po - Атмосферное давление - измеренное на уровне метеостанции атмосферное давление.
Tmin - Минимальная температура - минимум температуры воздуха на высоте 2 м над землей.
Tmax - Максимальная температура - максимум температуры воздуха на высоте 2 м над землей.
R - Количество осадков - Количество выпавших осадков за период времени, мм. При наведении курсора мыши на число - период времени, за который выпало указанное количество осадков.
R24 - Количество осадков - Количество выпавших осадков за 24 часа, мм.
S - Снежный покров - Высота снежного покрова, см. При наведении курсора мыши на число - состояние снежного покрова и степень покрытия местности в баллах.